Theta_e
321 321 321 322 322 322 322 322 322 322 322 322 322 322 323 323 323 323 323 323 324 324 325 325 326 326 327 328 328 329 327 326 329 325 327 333 341 354 361 360 356 362 365 346 348 349 347 348 350 355 350 348 346 342 347 345 345 344 327 325 320 321 321 329 326 328 330 329 328 333 336 332 330 334 334 339 336 335 336 335 339 343 342 343 345 347 349 348
321 321 321 321 321 322 321 321 321 321 321 321 322 322 322 322 323 323 323 323 323 324 324 325 325 326 327 327 329 329 327 330 327 325 325 340 353 356 359 358 359 362 364 342 345 346 345 343 347 352 345 340 343 341 345 342 344 332 326 324 321 325 327 336 335 335 332 330 331 334 336 332 330 334 335 332 330 332 330 334 339 340 343 344 346 346 347 347
321 321 321 321 321 321 321 321 321 321 321 321 321 321 321 322 322 322 322 322 323 323 324 325 326 326 327 328 329 328 329 324 327 322 331 348 356 356 357 357 358 360 344 343 347 347 349 345 346 345 343 340 342 337 344 339 338 335 328 323 324 332 332 337 339 337 337 337 335 330 333 333 332 333 335 332 330 332 329 331 335 336 338 341 343 345 345 344
320 320 321 321 321 321 321 320 320 320 320 320 321 321 321 321 321 321 322 322 322 323 324 325 325 327 327 328 329 328 328 329 318 323 331 356 352 357 357 354 358 357 342 345 348 346 348 346 345 343 343 339 336 344 336 337 338 334 330 325 327 335 330 337 341 339 339 339 335 332 332 331 333 334 333 330 329 331 331 335 335 336 338 341 343 343 342 342
320 320 320 320 320 320 320 320 320 320 320 320 320 321 321 321 321 321 321 322 322 323 324 325 326 327 328 328 327 328 326 311 317 327 339 348 356 354 357 356 358 344 342 345 346 347 346 344 343 341 337 332 334 336 334 340 337 333 330 335 334 335 331 335 339 339 339 341 337 332 330 328 335 335 333 333 327 327 331 336 339 340 342 341 341 341 342 342
319 320 320 320 320 320 320 320 319 319 319 320 320 320 320 320 320 320 321 321 322 323 324 325 326 327 327 327 328 325 318 304 326 326 354 356 351 356 357 358 359 345 344 343 342 343 342 343 340 338 334 331 329 328 333 337 337 326 333 336 336 336 334 337 339 338 341 339 336 334 335 336 331 331 334 333 329 331 337 339 341 342 343 344 343 342 340 340
319 319 320 319 320 319 319 319 319 319 319 319 319 319 319 319 320 320 320 321 321 322 324 325 326 327 327 327 331 325 316 315 321 332 361 358 353 355 358 360 364 347 343 341 341 338 339 338 335 335 332 332 333 330 330 336 337 333 327 334 336 342 338 340 337 338 337 339 337 341 341 336 331 328 335 332 332 334 337 341 342 343 344 344 341 341 340 339
319 319 319 319 319 319 319 319 319 319 319 319 319 319 319 319 320 319 320 320 321 323 324 325 326 327 327 325 320 319 319 313 322 334 361 355 348 350 356 340 338 339 340 340 338 338 340 334 333 333 327 324 328 331 334 333 333 331 329 335 335 340 339 338 338 334 339 338 341 341 338 335 337 335 332 332 336 335 337 341 342 342 343 343 341 341 340 339
319 319 319 319 319 319 319 319 318 319 319 319 319 318 319 319 319 319 320 320 321 323 324 325 326 327 326 326 319 311 312 322 337 342 349 343 333 335 332 331 337 337 339 341 340 337 337 334 333 334 325 327 331 331 331 328 325 332 331 335 337 337 337 336 339 340 336 340 341 338 332 336 339 341 334 335 335 335 337 338 340 340 340 340 341 341 341 340
319 319 319 319 319 318 318 318 318 318 318 318 319 319 318 318 318 319 320 321 322 323 324 325 326 326 325 325 321 311 317 327 333 340 339 333 330 332 328 332 336 338 336 338 338 339 337 337 336 336 332 329 332 327 329 327 326 334 334 336 337 336 338 337 335 340 338 340 339 336 333 337 339 338 329 337 335 336 336 336 339 338 338 339 339 341 342 342
319 319 319 318 318 318 318 318 318 318 318 319 319 319 318 318 318 319 320 321 322 323 324 325 327 326 325 326 317 312 323 324 326 329 331 330 330 329 326 329 336 336 337 336 336 341 338 338 338 335 332 327 328 326 330 326 332 332 333 333 334 334 339 339 338 339 338 335 338 339 337 339 339 333 331 333 336 336 333 334 336 337 338 338 339 340 342 342
319 319 318 318 318 318 318 318 318 318 318 319 318 318 318 318 318 319 320 320 322 323 325 326 326 327 327 321 315 317 325 325 327 327 328 328 329 330 329 330 336 336 336 333 337 338 340 339 339 333 324 332 323 327 327 333 333 331 331 326 328 331 329 331 330 333 336 335 339 341 334 330 333 328 334 335 336 338 334 333 334 336 337 338 340 340 341 341
318 318 318 318 319 318 318 318 318 318 318 318 318 317 317 318 319 319 320 321 322 323 325 327 328 329 325 315 320 326 326 326 325 326 330 332 331 331 331 332 336 338 338 336 336 341 342 340 337 330 333 331 326 322 326 330 331 332 332 326 326 325 325 331 334 334 331 338 341 341 318 321 328 332 335 336 340 341 335 333 332 335 336 337 338 338 340 341
318 318 318 318 318 318 318 318 318 318 317 317 317 318 318 318 319 320 321 321 323 324 326 326 327 328 325 320 324 325 326 325 325 326 325 329 329 329 330 333 336 340 342 339 339 341 340 342 339 334 334 326 323 332 326 328 328 323 328 328 319 318 317 328 331 331 329 339 340 336 318 320 329 334 337 338 342 339 336 335 331 333 335 336 338 339 339 340
318 318 318 318 318 318 318 317 317 317 317 317 317 317 318 318 319 320 321 322 324 326 328 326 328 326 321 321 329 330 361 325 320 321 326 323 327 328 329 331 333 337 340 340 339 341 341 339 336 331 326 332 331 324 320 324 327 326 320 315 319 318 318 326 332 330 326 334 336 333 319 319 326 330 337 339 342 339 335 335 335 332 334 336 337 338 338 340
317 317 318 318 318 318 317 317 317 317 317 317 316 317 317 318 319 320 322 324 325 326 328 326 327 324 318 313 319 338 325 320 319 321 322 324 326 326 330 329 333 336 336 336 341 339 338 336 329 328 327 327 324 319 321 319 320 321 318 314 313 317 318 320 326 332 332 333 335 332 320 322 325 330 336 340 341 336 336 335 334 335 333 334 336 337 338 339
317 318 317 317 317 318 317 317 317 317 317 317 316 316 318 319 322 323 324 325 329 329 328 326 329 326 312 320 327 320 319 322 323 320 319 322 325 328 329 329 329 329 331 335 337 335 333 329 329 326 326 319 321 320 317 313 312 316 317 313 318 314 315 315 324 331 331 330 325 329 323 323 326 329 332 335 338 337 334 335 336 336 332 334 335 336 337 339
318 317 317 317 317 317 317 317 317 317 317 316 316 317 317 321 323 323 326 327 331 331 326 328 327 322 318 325 314 315 321 321 321 320 319 321 323 326 327 326 327 326 327 328 331 326 329 323 325 318 320 320 319 315 310 309 312 311 313 313 315 316 316 315 316 323 326 326 324 324 323 323 326 330 331 332 336 336 334 338 336 334 333 334 334 335 336 338
317 317 317 317 317 317 316 316 316 317 316 316 317 319 321 321 322 326 328 324 324 320 315 317 317 306 307 317 322 320 320 322 323 320 317 318 320 323 326 328 326 323 319 321 321 323 324 322 323 317 312 314 317 317 314 317 316 314 316 313 315 313 314 313 319 326 324 321 323 323 320 321 324 329 331 333 333 334 336 336 337 337 335 334 333 334 335 337
317 317 317 316 316 316 316 316 316 315 316 316 322 327 326 323 321 321 326 325 319 318 318 322 320 318 319 319 318 322 325 324 317 318 319 319 318 319 321 324 323 323 319 315 319 321 323 315 312 312 314 316 318 320 319 319 318 318 318 315 315 315 315 320 322 327 329 325 321 321 321 321 324 327 330 330 331 331 336 334 334 335 336 337 332 333 335 336
317 317 316 316 315 316 315 316 315 315 315 317 320 322 323 320 316 316 321 323 324 322 318 318 323 320 318 321 321 320 316 317 319 318 318 321 318 318 317 320 318 315 317 319 317 322 321 313 314 317 318 319 319 319 320 319 319 317 315 314 313 314 313 320 320 328 331 322 319 323 322 322 323 326 329 330 329 329 331 333 333 333 336 336 337 332 334 336
316 316 316 315 315 315 316 315 315 315 314 316 319 320 323 323 324 326 323 316 324 325 324 322 321 319 324 323 324 323 321 315 316 318 320 319 316 313 316 317 316 313 318 317 316 314 314 312 316 319 321 321 320 320 319 318 316 317 314 314 313 316 317 319 321 321 326 321 317 321 317 319 321 326 329 331 329 330 332 335 335 334 336 338 336 337 333 335
316 316 316 315 315 314 315 316 315 313 318 318 317 318 318 324 328 330 326 319 314 320 324 323 319 318 318 323 324 324 316 313 311 317 317 318 315 314 316 315 314 315 316 316 310 310 308 314 319 321 321 319 318 319 319 318 317 314 313 313 313 316 312 313 319 321 327 319 316 318 313 316 324 328 329 332 331 333 333 334 339 338 334 334 334 339 332 333
316 315 315 315 316 315 315 315 314 315 316 321 319 317 323 328 329 328 321 312 312 319 319 323 322 319 318 317 323 321 316 315 315 314 321 318 313 317 314 316 314 314 312 314 313 310 310 315 321 321 319 316 314 317 316 315 311 314 314 313 313 312 315 312 316 320 324 322 320 316 315 314 323 321 323 330 333 334 334 331 339 339 337 338 343 339 335 337
315 315 315 315 314 315 315 312 314 318 323 320 319 323 325 327 329 329 319 315 315 314 324 322 323 321 322 328 326 318 319 319 318 320 321 319 315 314 312 317 316 312 313 314 314 312 311 316 318 318 317 317 316 314 315 314 310 312 315 315 315 316 315 313 314 314 313 313 321 317 308 310 317 322 322 328 330 329 330 331 335 336 338 339 338 341 340 335
315 314 314 314 315 312 309 313 320 322 321 318 322 326 326 327 332 330 319 311 309 313 318 311 321 314 326 318 323 320 320 313 321 321 322 320 322 315 315 311 316 310 313 312 312 313 313 317 315 314 316 315 314 314 316 314 309 309 311 317 316 315 315 313 311 310 305 305 318 320 306 305 314 317 323 326 327 328 331 330 330 333 336 337 340 342 341 338
314 314 314 314 315 309 315 321 329 325 319 323 329 330 331 330 341 328 317 309 304 313 312 317 316 317 321 321 321 321 305 310 321 322 320 323 317 321 310 310 313 315 317 316 312 308 314 314 314 314 314 313 311 310 313 313 310 307 316 318 316 315 313 312 312 310 309 315 321 316 313 306 306 312 323 327 325 327 329 329 329 332 334 333 340 339 340 339
313 313 313 313 315 311 324 321 326 324 326 328 331 330 331 335 330 327 314 302 299 317 312 315 318 323 320 321 321 316 315 319 312 317 321 322 321 316 312 310 310 311 314 312 303 312 313 312 312 312 314 311 309 312 314 314 309 310 316 317 315 315 314 313 311 310 310 309 308 311 314 307 306 314 323 322 320 325 327 329 329 330 331 332 337 336 339 339
313 312 312 313 314 311 316 318 322 324 329 332 330 331 332 335 328 317 310 301 311 313 323 313 324 320 319 321 317 317 317 319 310 317 321 322 321 317 309 310 311 312 315 313 306 310 315 314 314 314 311 309 313 314 315 314 311 315 316 317 317 315 315 314 311 310 312 307 303 307 311 305 306 311 313 321 322 322 326 330 330 329 331 333 332 336 337 338
311 311 311 312 313 315 316 320 320 329 331 331 332 332 331 327 320 311 305 296 314 306 315 316 315 314 318 314 314 317 314 316 317 318 319 316 318 318 316 318 311 310 309 313 312 312 314 321 320 315 312 313 314 316 315 314 315 317 316 314 314 314 313 313 313 313 309 302 306 310 311 309 301 309 311 312 314 325 327 330 331 330 331 333 333 334 336 337
310 309 311 310 321 329 327 322 327 331 332 334 332 331 328 323 312 307 299 304 312 311 316 315 313 318 314 312 309 316 315 316 315 316 313 317 315 316 314 310 315 310 308 309 309 311 312 313 313 315 318 317 317 314 316 316 315 314 312 311 310 309 311 310 310 312 302 300 307 311 311 311 300 307 314 316 319 319 327 328 331 330 330 331 333 333 335 337
309 308 310 314 323 325 323 325 331 333 334 333 330 325 321 310 315 304 300 313 301 310 310 310 314 313 312 313 311 312 312 314 316 314 311 312 311 309 309 304 308 301 301 303 303 311 309 309 312 314 320 316 314 311 312 314 314 311 310 309 304 303 305 300 304 301 301 301 308 311 312 308 305 310 314 316 317 319 328 330 331 331 329 332 332 333 336 336
308 307 308 313 316 322 327 334 336 337 334 331 326 323 315 309 303 306 306 311 304 311 309 312 311 312 312 310 308 312 314 309 314 313 313 313 310 310 312 309 310 307 299 304 303 304 307 312 312 312 314 317 314 307 307 306 310 310 307 306 303 299 299 296 300 304 303 307 311 310 313 306 311 313 317 316 318 327 327 332 333 331 333 334 333 333 333 336
307 308 315 317 318 325 331 336 336 335 330 328 324 318 314 307 302 316 308 310 309 314 312 311 311 311 309 306 310 313 307 313 312 311 312 309 309 306 309 311 311 308 307 305 302 302 298 305 308 311 306 315 314 311 310 308 309 310 312 308 305 304 300 297 299 296 301 302 306 312 306 305 305 310 319 319 320 329 328 329 332 335 336 337 337 335 334 334
303 311 320 327 327 329 331 333 335 333 329 324 318 314 307 305 307 304 305 309 311 311 310 313 309 308 308 310 312 313 311 307 312 311 310 307 306 307 306 307 310 310 308 301 305 304 303 302 308 314 314 314 312 315 314 310 309 312 312 312 306 304 310 301 304 304 303 303 303 305 306 312 310 317 319 322 319 320 322 335 334 335 334 336 335 334 332 332
309 325 325 327 333 337 336 334 334 332 327 321 315 311 305 307 305 309 308 314 312 309 308 310 309 306 307 307 311 310 314 309 310 309 308 309 309 307 310 311 309 311 307 302 305 300 303 301 311 313 314 313 313 315 313 313 301 308 310 305 307 314 310 306 306 307 306 303 301 309 308 310 315 315 316 318 318 319 321 324 328 334 332 333 332 332 332 332
324 333 328 331 334 331 332 333 332 329 326 318 312 307 308 310 313 312 315 311 311 312 311 304 307 305 304 305 307 309 310 311 309 308 305 309 306 309 310 312 315 312 312 309 305 310 301 302 310 308 308 313 316 315 315 314 312 309 305 309 315 316 313 308 300 305 302 298 302 306 302 303 306 302 314 316 316 317 323 321 324 332 330 332 330 332 333 332
328 332 333 328 327 330 333 333 330 328 321 316 311 313 313 309 315 314 316 314 313 314 308 307 307 309 305 306 305 308 311 307 307 307 304 307 304 312 310 311 314 314 314 316 308 307 309 300 306 310 311 313 315 315 312 314 315 309 309 317 307 303 301 307 303 296 300 297 300 303 305 306 308 309 311 312 313 316 322 325 324 329 326 327 330 332 334 335
327 327 327 326 330 330 334 334 328 325 319 313 313 310 313 313 316 316 316 315 314 313 307 310 307 310 309 307 308 310 310 305 308 306 304 306 303 310 310 313 312 315 315 315 310 310 311 304 304 311 310 311 313 311 304 307 312 313 314 310 314 309 305 303 304 305 304 298 299 300 303 301 308 309 310 312 315 317 319 319 323 322 333 329 328 327 331 337
324 324 323 331 327 329 336 332 324 322 318 311 309 310 313 311 313 317 317 315 310 310 309 307 312 308 310 310 310 308 311 310 308 308 305 308 305 311 310 315 311 314 315 316 312 314 307 311 298 307 312 312 304 309 305 308 305 306 306 306 309 309 312 310 309 305 302 300 301 300 300 305 315 315 314 315 317 317 318 320 326 325 327 332 334 331 333 338
328 323 322 331 328 330 332 325 320 316 316 318 315 311 314 311 310 315 316 317 313 319 312 310 311 308 310 308 309 312 310 310 310 307 306 308 309 306 314 313 314 312 315 313 311 311 307 307 302 304 305 305 307 312 311 310 311 308 306 304 307 307 304 302 303 310 308 304 299 301 298 306 314 316 321 322 324 322 323 323 323 325 331 334 338 335 338 342
324 319 321 331 331 327 322 315 318 317 313 312 310 311 309 316 313 313 312 316 315 313 317 314 314 312 312 311 311 310 310 309 310 308 309 307 310 311 314 317 316 315 312 308 309 315 313 310 306 302 304 305 310 312 314 313 312 312 310 306 309 309 309 305 296 304 307 306 307 305 301 306 317 319 319 321 326 326 326 323 326 329 331 334 337 333 342 343
322 318 325 331 330 327 320 315 320 317 314 312 313 315 315 314 311 314 313 314 311 314 313 313 313 309 312 311 311 309 311 308 309 309 310 311 310 314 316 317 317 316 315 311 312 313 318 308 303 304 309 310 311 315 315 314 312 309 311 312 309 306 308 307 306 308 305 306 302 303 300 306 315 323 323 323 325 327 330 328 332 331 331 340 345 347 343 340
323 317 319 322 327 326 318 311 312 314 313 316 312 314 314 313 312 312 310 313 311 311 308 310 313 314 309 312 311 308 311 304 310 309 309 311 310 319 317 317 317 313 313 313 309 315 306 310 305 302 301 303 306 309 309 312 310 307 308 310 312 311 310 310 310 311 304 305 305 303 297 303 317 321 323 325 326 328 327 330 331 330 331 337 343 342 342 341
322 321 320 320 324 323 312 314 311 312 312 312 310 311 310 314 316 315 309 311 315 312 310 310 312 312 309 313 310 311 312 310 308 312 311 311 313 317 318 317 317 313 317 318 320 317 309 308 308 299 295 294 294 296 300 304 305 307 310 310 311 310 309 307 303 307 299 307 307 304 304 311 315 320 319 323 325 328 330 329 332 335 336 337 337 338 336 336
317 314 317 318 321 321 318 319 315 309 313 313 312 313 312 309 314 315 313 312 314 313 311 311 313 312 310 310 308 308 308 312 309 310 311 311 313 316 313 317 316 315 317 324 322 316 309 311 310 307 303 300 303 307 312 312 310 306 306 308 309 311 310 310 309 307 302 307 305 309 309 309 312 313 317 322 324 324 326 329 330 332 336 338 340 338 334 334
320 311 313 314 318 317 314 315 315 313 309 310 309 308 308 311 311 313 315 309 313 313 311 310 312 310 309 308 306 305 307 308 313 311 309 311 314 316 318 316 318 320 323 316 320 314 312 307 308 309 308 308 309 309 311 311 307 308 308 309 309 309 310 309 306 305 316 306 301 312 315 308 309 314 315 320 321 326 327 329 330 333 336 338 337 332 334 331
312 312 319 320 313 306 311 311 315 313 313 314 309 310 310 308 310 308 311 313 312 316 308 310 312 310 309 306 306 303 305 305 307 307 311 313 313 315 313 317 316 321 320 316 318 313 310 305 308 308 306 308 309 309 311 310 309 309 309 309 308 309 309 308 308 309 308 305 302 312 315 312 312 314 315 320 322 324 328 331 334 334 338 339 337 335 332 332
321 315 314 318 312 312 311 313 315 315 311 312 313 310 308 308 307 310 309 310 310 311 311 304 306 308 308 308 306 303 306 302 303 309 310 313 311 311 309 313 316 317 317 315 315 319 312 306 309 310 308 309 310 310 310 309 309 309 309 310 310 309 308 308 308 310 309 309 310 310 315 310 313 314 316 320 324 324 328 334 333 333 336 338 336 334 333 340
317 316 318 325 317 314 316 316 315 316 311 312 311 308 309 309 306 308 309 309 306 308 311 306 306 307 308 308 309 305 307 309 308 305 310 308 308 310 309 310 311 316 315 315 313 315 312 307 311 309 307 307 309 310 311 310 309 307 309 310 311 312 309 309 308 309 311 310 310 310 311 312 317 321 320 320 324 329 330 327 326 329 337 336 338 339 341 339
323 325 325 320 314 313 317 314 312 313 310 310 308 308 308 308 307 308 309 313 310 307 309 306 308 308 309 309 309 310 312 311 310 309 309 308 303 309 306 308 315 312 314 312 313 315 312 310 311 309 304 304 308 308 308 309 309 308 308 310 310 311 311 310 307 310 309 308 309 309 309 310 317 322 321 324 322 326 325 327 330 332 335 336 336 338 338 340
325 328 329 326 316 318 313 314 312 313 308 309 306 309 308 308 310 310 307 313 313 312 311 309 310 309 309 308 309 310 312 311 311 311 311 311 312 311 311 310 310 310 312 312 315 311 312 310 307 306 302 302 308 309 308 307 306 303 304 311 312 314 317 317 314 324 321 320 311 307 309 320 321 323 319 323 326 325 327 327 330 332 338 337 337 339 339 338
Wind_Speed
14 15 15 15 15 14 14 15 16 15 16 16 16 16 16 15 15 15 16 16 17 17 17 17 17 17 17 18 17 16 16 11 12 10 11 14 3 8 8 11 13 14 11 7 9 9 3 7 1 2 3 5 2 1 4 2 4 4 3 2 1 2 2 4 1 2 7 8 7 5 3 4 4 4 6 2 6 7 7 10 10 8 13 16 19 20 20 20
15 15 15 15 15 14 14 15 15 16 16 16 16 15 16 15 16 16 16 16 17 17 17 18 17 17 17 17 17 17 15 12 13 13 17 3 14 11 9 11 12 12 10 9 9 6 14 9 8 3 3 4 1 1 5 2 5 4 1 4 1 1 4 3 3 4 4 5 2 1 3 5 5 4 5 1 7 7 8 11 11 13 18 22 21 20 22 21
15 15 15 15 15 15 14 15 15 16 16 16 16 16 15 16 16 16 17 16 17 17 18 18 18 18 18 17 17 17 13 12 13 16 1 4 11 11 12 12 12 12 14 11 9 5 18 14 8 1 2 5 2 5 5 1 4 2 2 0 2 1 3 2 3 2 7 10 11 4 3 4 6 4 5 1 6 5 8 9 11 12 16 19 21 21 21 20
15 15 15 15 15 15 15 14 15 16 16 16 16 16 15 15 16 16 17 17 17 17 18 18 18 19 18 18 15 14 10 12 13 2 6 5 6 10 11 13 13 14 13 13 10 4 6 4 6 4 2 4 4 2 2 3 4 5 1 3 0 3 4 4 4 4 2 5 10 4 5 5 5 9 6 5 4 1 7 7 11 14 17 18 19 20 20 20
15 15 15 15 15 15 16 15 15 16 16 16 16 16 16 15 15 16 16 16 17 17 18 18 19 19 19 18 16 10 10 10 1 10 6 7 5 6 10 13 14 13 14 11 11 3 6 9 8 4 6 3 3 4 2 3 3 1 4 3 1 2 3 4 2 2 4 6 7 3 4 2 2 6 6 4 2 2 6 7 13 14 16 18 19 19 18 20
16 16 15 15 15 15 15 16 16 16 16 16 16 16 16 15 15 16 16 16 16 17 17 18 19 19 20 18 16 9 6 3 8 4 8 7 8 4 7 10 14 12 10 11 11 0 4 9 2 3 3 4 3 3 4 2 6 0 1 2 3 2 3 2 3 2 3 7 6 7 3 9 3 4 5 5 2 3 8 8 13 14 15 17 16 17 18 19
15 15 15 16 16 16 16 16 16 16 16 16 16 17 17 16 16 16 17 16 16 16 17 17 18 19 19 21 9 8 8 13 14 5 7 8 10 7 5 7 5 8 11 11 10 2 2 14 5 4 3 4 1 4 2 3 7 5 0 2 1 2 3 1 3 1 3 4 5 4 4 8 5 3 2 1 3 5 9 8 13 14 16 16 17 16 17 17
16 16 16 16 16 16 16 16 17 16 17 16 16 16 17 17 16 16 16 16 16 16 17 17 17 18 16 11 7 8 11 13 4 9 7 8 11 9 6 7 10 9 11 11 8 8 3 5 7 3 6 2 7 5 1 2 4 3 1 1 2 1 2 3 4 0 1 3 2 6 8 5 5 3 4 1 9 5 9 9 11 14 15 15 15 16 16 16
16 16 16 16 16 16 16 17 17 17 17 16 16 16 16 17 17 16 16 16 17 16 16 16 17 15 10 6 7 9 10 8 10 9 14 11 10 11 11 7 11 11 10 10 11 8 4 2 10 8 6 3 9 5 7 4 3 4 4 1 2 1 4 4 7 1 4 5 10 7 4 5 3 10 4 2 7 4 9 10 10 13 14 14 15 15 15 14
16 16 16 16 16 17 17 17 18 17 17 16 13 13 16 17 17 16 16 16 16 17 16 16 15 14 11 7 8 9 2 6 9 14 14 8 11 11 13 9 10 11 10 10 8 8 7 7 12 9 5 8 13 3 5 5 5 8 6 2 1 0 3 5 6 5 6 4 7 3 3 4 2 4 1 4 6 4 8 11 10 12 13 13 13 14 14 14
17 17 16 16 17 16 18 18 18 18 16 15 14 12 16 17 17 17 16 16 16 16 16 15 13 11 8 8 9 10 5 9 2 4 2 4 9 10 12 11 10 10 11 10 10 4 8 4 6 6 5 4 10 1 9 7 9 11 10 4 1 2 2 2 3 4 3 3 9 3 3 2 5 3 6 6 6 3 6 9 10 10 12 12 13 13 13 14
18 17 17 17 15 16 17 18 18 17 17 15 14 16 17 17 17 17 17 16 16 16 15 12 10 6 9 10 10 14 1 3 3 6 6 7 9 11 10 10 11 11 10 10 9 7 6 8 6 9 8 7 8 1 4 22 1 10 7 4 2 2 1 3 2 4 8 1 2 5 5 6 5 6 1 4 8 4 2 11 11 11 11 11 13 11 11 11
18 18 17 16 14 15 18 18 18 17 17 15 14 17 17 17 17 17 16 16 13 13 12 12 9 6 7 10 14 19 19 13 11 3 4 6 9 9 10 10 12 13 13 12 11 4 5 6 9 10 9 10 8 4 6 9 12 10 5 2 3 2 2 4 4 6 5 3 3 3 4 3 5 5 4 3 3 5 6 3 12 9 10 11 11 11 11 11
18 18 17 15 15 17 18 17 18 18 18 16 15 17 18 17 17 17 16 16 16 15 12 10 7 7 8 10 10 6 2 9 7 7 9 7 11 11 11 10 11 12 10 12 10 10 8 5 7 10 9 9 8 6 6 8 6 6 2 1 1 2 2 4 5 6 4 3 6 3 2 3 5 4 4 3 2 2 2 8 5 11 10 10 11 11 11 12
19 18 16 14 15 17 17 17 17 18 16 15 15 17 18 19 17 18 17 15 14 12 11 7 6 6 8 10 14 21 4 5 10 10 8 11 11 11 12 12 12 10 10 10 9 6 7 8 9 10 9 10 12 10 2 8 3 5 2 1 3 6 4 4 6 4 4 5 6 5 4 1 2 4 6 5 4 0 4 7 11 10 10 12 11 11 11 12
20 18 15 14 15 16 17 16 15 14 15 15 16 16 18 19 18 16 15 13 14 11 6 5 8 10 10 13 2 7 8 12 13 13 10 11 11 13 10 11 9 9 12 10 6 8 6 8 10 9 10 11 10 5 3 7 4 0 5 2 2 4 2 4 6 5 5 4 6 8 2 1 4 6 5 6 6 4 4 10 9 10 12 12 11 11 10 11
19 16 14 14 14 15 17 15 13 13 15 15 16 17 16 15 14 13 13 12 8 7 6 5 3 10 6 2 1 8 9 11 9 9 11 11 12 13 10 11 11 12 10 11 9 8 10 9 7 10 10 9 7 9 4 2 4 5 7 5 4 6 5 1 7 7 10 7 7 9 6 4 2 6 6 8 8 6 5 8 11 14 9 10 11 11 12 12
16 15 14 13 14 13 15 14 13 13 14 16 16 18 15 15 14 14 11 7 7 6 8 10 10 8 15 15 12 5 3 10 11 7 10 10 13 12 13 10 10 11 10 10 12 12 8 9 7 10 7 9 10 8 5 2 6 6 5 5 6 8 7 2 4 8 9 10 7 7 8 7 4 5 6 9 11 7 8 6 9 11 8 11 10 11 12 12
17 16 15 13 13 14 16 16 14 12 15 18 22 19 18 15 8 7 5 6 6 4 5 8 8 8 9 4 14 12 9 5 4 5 9 11 12 12 12 11 9 11 11 10 8 12 8 10 9 9 10 9 10 10 4 13 5 4 10 2 5 5 6 6 9 9 12 10 9 9 8 6 7 7 8 8 13 15 10 5 5 8 11 9 11 11 11 11
18 17 14 13 12 13 15 14 12 12 13 13 8 5 4 4 4 4 8 9 12 10 11 7 16 13 13 9 9 2 10 5 8 8 9 10 9 14 14 11 11 11 12 11 10 13 8 11 10 10 10 10 11 8 8 6 7 7 9 10 6 7 2 9 6 11 10 9 10 9 9 7 9 10 10 10 11 12 13 10 6 7 6 11 10 12 11 11
18 16 14 12 11 11 14 10 9 11 8 8 9 6 4 5 6 2 7 12 17 18 19 14 15 12 12 6 4 4 8 10 8 7 11 9 12 11 13 11 12 12 12 13 12 8 12 11 12 13 13 13 11 10 8 7 8 7 6 7 4 5 4 6 10 14 13 9 10 13 11 10 11 10 11 10 12 12 14 15 9 5 6 6 16 11 11 11
18 15 13 12 10 10 10 11 8 8 9 7 6 6 8 7 7 7 6 9 14 22 20 16 14 15 12 13 8 4 5 10 10 9 9 10 12 12 11 13 13 13 11 12 12 12 12 13 12 14 14 13 13 12 9 6 5 7 7 5 2 7 6 11 11 8 4 6 4 13 11 9 11 12 11 11 11 11 12 12 14 12 8 6 12 15 11 11
18 16 14 11 9 8 8 7 8 3 5 6 7 10 10 10 7 7 7 10 14 13 17 15 14 13 13 10 10 6 10 11 11 10 10 11 11 15 11 13 13 13 13 13 12 11 13 12 15 13 12 13 13 10 6 7 8 8 6 6 5 5 5 3 4 4 8 5 3 5 4 4 8 11 12 11 12 9 10 14 13 14 12 11 13 11 8 14
18 16 13 11 9 7 6 4 5 7 8 11 11 13 10 9 9 9 8 6 8 7 12 13 12 11 12 11 3 13 11 9 11 12 12 11 11 12 14 14 15 13 14 14 16 14 13 11 10 13 12 11 14 11 9 8 8 9 10 7 5 5 7 4 5 9 11 6 2 4 4 4 11 8 8 11 11 7 7 10 13 11 11 12 7 1 9 9
18 15 13 10 8 4 3 3 5 8 10 10 14 14 12 10 8 6 8 7 8 8 7 8 5 7 5 1 3 6 7 10 13 12 9 14 12 10 13 11 10 13 15 16 16 16 17 16 13 11 11 10 12 12 10 10 9 8 8 8 9 6 5 4 11 15 7 7 6 3 4 3 9 14 10 9 9 9 8 9 12 11 9 9 9 1 3 12
15 14 11 8 4 4 6 3 7 9 9 9 10 12 8 8 5 5 6 4 5 8 6 7 4 2 3 7 5 8 8 12 10 12 11 14 10 12 8 12 9 13 15 16 14 10 12 14 16 15 12 11 11 8 7 7 9 8 4 7 9 9 8 9 7 5 7 2 5 6 6 2 7 8 12 9 11 12 10 9 9 11 9 8 6 5 5 10
13 12 9 6 7 10 4 2 8 5 8 6 0 4 1 0 3 7 5 5 4 8 7 8 6 3 4 3 6 4 9 4 6 12 14 14 12 9 15 11 11 10 11 8 8 11 11 15 14 14 15 11 10 9 9 11 9 8 5 7 4 6 5 7 10 9 6 6 10 8 7 5 5 7 14 14 12 12 11 11 9 9 13 14 10 9 9 11
12 11 8 7 9 15 4 8 11 6 3 5 3 0 2 3 2 4 5 4 7 5 6 7 5 5 6 7 7 9 10 6 9 13 15 13 10 10 13 14 13 13 13 10 13 8 13 13 12 14 14 11 11 9 12 11 9 8 5 9 11 7 7 9 8 5 5 8 5 6 5 5 6 8 12 14 11 12 13 13 14 15 15 15 15 15 15 12
12 8 5 7 7 12 10 7 8 8 7 5 2 4 3 1 7 5 4 6 5 3 4 5 1 5 5 5 7 10 11 7 8 4 12 12 10 9 11 15 16 16 14 14 13 11 11 13 10 13 12 11 11 13 12 13 9 8 12 12 3 4 9 8 7 6 4 7 6 6 7 5 4 7 7 13 12 13 15 16 16 15 15 14 13 15 16 15
10 9 6 5 5 5 6 6 9 9 5 3 5 5 5 6 6 6 6 1 2 5 4 5 6 4 6 7 8 10 10 5 6 5 6 6 10 11 13 9 13 14 15 15 17 13 13 4 8 10 10 13 13 8 10 12 13 12 9 10 11 10 7 8 6 4 3 7 7 8 9 5 6 7 6 7 9 15 13 12 13 15 14 15 16 17 15 16
9 4 6 10 6 2 3 6 8 10 2 3 6 8 7 5 5 6 5 7 6 8 7 6 4 7 9 6 9 11 10 6 8 8 8 6 9 9 9 11 8 10 11 13 14 15 16 17 9 9 11 11 9 10 8 10 11 10 8 7 4 7 8 7 6 5 7 6 7 8 9 7 8 4 5 9 7 12 18 18 18 18 18 18 16 16 17 17
8 4 7 11 5 8 6 6 8 5 4 5 7 8 5 7 8 7 6 7 6 6 7 9 10 4 6 9 10 4 9 9 8 9 7 7 7 8 9 11 7 9 11 11 12 11 15 15 13 10 8 14 11 9 9 10 12 12 11 10 8 5 4 5 4 8 6 7 5 7 7 7 9 8 3 13 12 8 22 14 16 18 18 17 17 16 14 16
6 4 6 11 9 7 11 7 4 4 5 7 7 6 7 5 6 5 7 9 5 7 7 6 10 9 11 9 9 8 5 8 6 7 5 8 7 7 8 11 11 9 10 9 13 11 10 13 15 14 11 14 14 11 9 10 10 11 11 9 9 7 7 7 5 4 7 6 8 7 4 7 4 5 6 8 8 16 19 16 17 21 19 19 17 15 15 17
3 6 5 9 10 11 10 10 5 5 7 7 7 7 7 7 3 6 9 9 11 10 11 11 12 10 10 11 8 8 10 5 5 7 6 9 8 8 9 13 13 13 11 12 11 8 11 9 12 13 12 11 13 13 12 10 8 9 8 10 8 6 6 6 4 7 5 2 8 12 8 3 8 4 4 9 7 16 19 19 17 16 18 17 16 16 15 15
3 7 9 9 10 13 14 11 6 7 6 7 7 6 8 5 7 9 8 9 9 10 11 10 10 9 8 9 8 9 7 8 6 7 8 6 9 7 8 8 13 12 11 12 7 8 13 11 9 14 13 13 15 14 14 15 12 8 9 10 9 9 5 8 6 8 4 1 2 5 5 2 2 2 6 6 10 7 9 18 18 16 13 16 14 14 13 13
3 5 7 7 8 10 10 8 7 6 6 7 7 7 4 7 7 8 7 9 8 10 11 12 14 12 8 4 13 2 8 7 7 2 8 9 10 8 4 8 6 10 12 10 1 10 7 10 6 12 15 15 15 12 13 12 11 4 8 10 9 7 9 8 10 10 10 7 6 3 5 6 3 7 8 9 8 3 8 8 14 18 14 13 11 13 13 13
6 4 5 10 12 4 3 4 3 5 6 7 7 5 8 4 7 8 7 11 11 10 11 11 6 7 7 8 8 5 7 4 8 6 6 4 5 7 3 10 10 7 8 11 8 8 8 7 8 17 9 9 13 13 13 14 13 6 8 7 8 11 10 7 7 4 7 7 4 7 3 6 6 3 10 6 7 5 13 11 7 19 16 15 13 11 9 9
6 8 10 3 4 3 3 4 5 5 6 7 7 6 4 4 9 7 9 10 8 9 8 9 6 5 7 11 5 10 6 7 9 2 7 4 2 5 3 2 4 5 10 8 10 1 5 12 11 13 14 12 13 11 14 13 15 13 8 3 9 4 10 7 6 8 7 5 4 2 4 5 1 1 3 12 8 10 11 11 9 17 16 13 13 14 13 11
8 8 6 6 3 4 5 2 5 5 7 7 8 6 5 4 5 7 9 9 9 8 8 9 8 7 10 6 11 8 6 6 8 9 8 4 5 4 6 3 6 5 8 10 8 6 5 8 4 10 13 3 7 8 10 11 13 16 13 13 4 7 8 8 7 7 4 6 2 3 1 2 2 5 10 4 7 8 7 4 3 8 15 11 11 11 9 9
7 7 4 5 4 3 4 4 6 7 7 8 6 5 5 7 9 8 8 8 8 8 7 10 11 9 5 8 7 9 9 6 6 9 9 4 2 3 6 4 8 3 7 7 9 7 5 3 9 8 14 13 11 8 11 9 11 13 12 12 8 5 3 5 6 9 7 6 3 4 3 2 0 9 9 10 6 4 5 4 3 1 6 6 2 11 9 6
7 8 4 3 5 3 3 7 7 8 10 6 4 7 8 7 8 6 8 7 8 3 6 7 8 8 9 8 5 4 7 9 7 6 8 6 10 3 3 5 5 7 7 12 9 7 6 5 9 7 9 11 7 11 11 12 11 12 12 12 11 8 9 8 5 7 7 6 3 3 3 4 0 9 4 13 12 4 7 7 5 4 15 13 3 7 5 5
8 6 6 2 2 4 6 8 7 3 5 7 6 6 5 3 6 8 9 8 8 8 4 8 4 6 5 7 6 5 6 7 8 4 5 7 6 7 5 5 1 5 7 7 7 6 4 5 8 10 10 8 14 10 10 12 14 11 12 13 13 10 8 6 5 4 4 4 5 3 3 4 10 13 11 10 10 11 8 3 9 9 11 9 2 5 8 6
8 0 3 2 3 3 6 7 6 4 3 7 8 5 3 1 6 7 8 9 9 6 9 7 10 8 1 5 7 8 4 6 8 5 5 9 7 5 7 9 6 8 3 6 6 1 7 2 8 10 12 18 22 21 11 14 15 14 13 12 13 13 11 8 6 6 6 3 5 2 5 4 2 9 11 9 8 8 8 7 13 9 3 8 9 11 11 5
8 3 6 4 4 3 6 7 6 4 4 3 3 6 2 5 4 9 8 7 6 9 9 8 5 6 10 9 8 9 7 6 2 10 2 2 4 16 8 7 6 9 2 2 4 6 5 3 8 8 8 9 13 11 10 11 10 10 9 10 12 13 15 12 10 6 6 6 4 3 5 2 5 2 6 9 8 9 13 10 10 6 4 8 6 8 10 3
7 1 2 5 4 6 6 7 7 6 6 6 6 6 4 5 6 6 6 7 6 8 8 7 7 9 9 10 9 9 7 6 7 3 7 1 6 7 13 10 7 9 7 10 5 4 5 4 0 5 8 8 9 2 7 8 8 9 8 9 11 13 12 11 10 6 5 2 8 6 3 4 6 2 7 7 8 9 7 11 8 8 6 7 5 6 11 7
6 4 5 4 1 5 2 4 2 7 6 1 4 4 3 6 6 8 8 4 5 8 8 8 6 8 9 10 10 10 8 4 6 5 4 4 2 3 5 22 10 3 3 10 10 3 5 3 3 6 8 9 9 7 12 13 12 12 8 13 11 12 14 12 7 7 7 6 8 7 5 7 4 6 6 11 3 9 6 4 8 8 9 7 6 8 7 9
7 5 6 5 2 2 2 4 7 4 6 5 4 6 7 4 7 0 7 5 10 8 8 7 4 7 8 11 11 10 10 11 8 7 8 9 6 5 10 17 13 6 8 4 9 6 3 6 7 9 14 17 15 15 18 14 12 14 19 15 17 14 12 15 10 6 3 4 6 5 11 6 3 9 6 11 6 8 8 5 5 6 5 7 5 9 11 14
3 5 5 4 5 4 6 6 7 6 7 8 5 7 6 8 7 7 8 7 10 6 9 5 5 10 10 11 11 9 11 11 9 7 14 7 8 4 5 7 4 5 7 8 7 6 4 6 8 11 16 16 14 14 16 14 15 15 18 20 18 16 14 13 12 11 7 6 7 5 6 9 10 13 5 12 8 8 11 7 6 8 6 9 6 9 8 12
8 4 4 5 3 5 5 4 6 3 8 7 3 4 7 7 8 9 7 7 8 6 9 9 10 12 12 11 9 8 9 8 7 7 4 7 7 8 7 7 4 4 6 6 3 5 5 7 8 9 11 11 12 12 12 14 16 15 16 19 16 13 17 16 15 13 12 12 9 6 9 11 12 8 6 12 12 12 11 12 10 7 4 8 8 6 10 4
8 8 6 10 3 4 5 4 2 5 5 5 5 9 8 8 9 10 7 5 6 8 8 9 11 12 12 10 8 8 8 9 11 9 10 11 10 7 7 8 7 1 4 9 4 7 6 4 8 8 8 10 12 11 12 13 15 17 17 14 14 18 15 18 17 15 13 12 13 11 11 10 3 9 6 10 2 14 17 15 13 12 10 9 7 6 5 6
8 6 6 7 5 4 5 3 4 4 5 6 5 8 7 8 9 9 7 6 8 6 8 10 11 11 10 10 9 9 11 12 11 13 14 12 11 10 9 6 8 4 2 5 6 7 8 5 6 5 6 7 8 9 12 12 17 18 18 11 18 18 19 15 10 9 10 12 12 10 8 5 9 11 10 5 8 17 12 13 11 8 10 8 6 5 5 7
9 8 10 6 5 2 6 5 5 4 6 6 4 6 5 8 8 8 5 6 6 7 10 10 10 10 9 10 10 12 13 14 14 14 13 12 12 13 12 12 11 10 6 6 3 6 3 4 4 4 6 7 8 9 12 11 13 15 13 8 12 16 19 26 8 17 18 21 7 9 4 11 7 6 8 12 19 15 13 13 12 10 10 9 6 3 7 6
Wind_Direction
357 355 354 353 351 348 348 348 347 346 345 345 345 345 344 341 341 340 337 334 332 331 328 327 326 324 323 321 320 322 316 301 303 266 247 249 266 134 102 121 155 169 188 203 221 237 39 26 270 34 356 292 71 30 229 219 86 136 138 356 192 207 190 75 188 242 263 289 128 175 172 115 127 173 116 139 126 107 111 96 79 84 118 124 127 140 128 126
354 353 351 350 347 346 345 346 345 343 342 342 341 341 341 339 337 336 335 333 331 329 328 325 323 323 320 320 321 323 324 296 284 281 259 207 136 149 143 142 155 176 180 215 230 215 85 294 266 135 352 319 342 297 196 120 151 142 193 171 213 332 98 166 226 266 294 316 95 68 166 159 133 181 61 208 128 133 119 100 98 97 105 122 136 141 131 135
353 350 349 347 346 343 343 343 342 341 339 338 338 337 338 336 334 334 332 331 330 328 325 324 322 320 320 319 320 320 311 303 290 273 13 45 127 145 156 155 165 177 191 209 209 241 135 216 193 21 327 306 345 22 337 108 182 240 113 178 73 263 130 258 203 248 253 322 319 163 157 189 122 80 88 252 110 173 127 122 124 123 128 132 138 145 142 149
351 349 347 345 344 342 341 340 341 339 337 335 335 334 334 334 331 330 331 328 328 326 324 322 321 321 318 317 322 317 294 284 278 271 78 116 153 150 163 162 177 190 210 235 268 300 60 79 1 352 307 309 25 313 13 17 16 312 227 37 82 169 207 190 230 232 285 106 279 242 164 181 131 115 141 189 139 248 109 141 138 135 137 137 143 147 152 149
347 347 345 344 342 340 338 337 336 337 334 333 332 331 331 330 329 327 327 327 324 324 322 320 320 318 319 314 315 301 307 286 270 85 102 129 141 189 167 173 187 200 217 236 248 244 114 84 52 325 304 321 346 309 307 36 114 242 50 347 299 142 234 172 256 301 288 255 280 12 10 34 154 123 167 44 32 202 154 142 129 140 141 146 148 153 157 156
345 343 342 340 339 338 336 334 333 333 333 330 329 328 327 327 326 325 324 323 322 320 319 318 318 319 317 315 306 282 276 255 82 89 127 156 156 164 197 187 196 219 223 243 266 338 222 47 294 22 274 284 47 313 107 112 102 284 148 144 226 268 291 144 237 277 9 324 18 307 80 301 119 127 80 155 146 68 109 134 128 136 146 143 149 156 156 158
341 340 339 337 336 334 334 331 330 329 329 328 327 325 324 323 323 323 321 320 317 317 316 316 316 319 321 304 263 252 253 268 287 111 117 165 144 158 191 220 209 227 245 255 253 216 181 137 241 236 270 262 166 252 39 145 95 133 79 190 153 93 270 199 275 254 310 90 299 287 306 331 39 21 127 32 91 91 113 131 133 139 143 148 152 160 156 158
339 338 336 335 333 332 331 329 327 326 325 325 323 322 320 319 320 319 318 315 315 313 313 314 315 317 335 322 289 234 238 254 255 116 142 162 151 151 165 215 210 218 236 245 260 236 113 92 255 169 241 321 120 184 178 88 84 122 136 246 82 169 263 250 234 326 71 290 331 330 5 37 305 297 346 344 314 108 112 131 133 140 145 153 156 156 158 159
336 334 333 331 330 328 328 326 324 322 322 320 319 318 317 315 316 315 314 313 310 311 309 310 312 316 309 282 282 290 262 234 115 156 158 169 148 163 172 194 213 217 229 235 240 282 114 116 270 204 303 50 142 139 204 210 122 71 125 141 168 230 34 324 337 341 308 11 338 40 335 278 319 306 316 246 273 111 127 131 150 144 150 158 159 157 158 167
333 331 330 329 327 325 324 323 320 319 318 316 314 313 314 312 311 311 310 308 306 305 307 307 308 316 303 262 271 259 280 61 149 162 164 149 150 169 184 205 194 219 230 229 259 237 250 168 235 294 7 273 143 26 143 345 110 122 126 173 177 167 155 182 161 315 37 59 317 250 261 288 279 347 207 249 276 173 145 139 153 155 157 157 163 160 161 154
330 329 327 326 324 323 321 319 317 316 314 313 310 313 312 309 306 306 305 303 302 302 301 301 306 308 285 271 266 254 59 273 25 314 66 222 173 189 197 215 204 222 233 246 254 244 269 271 285 300 262 28 301 80 129 173 130 133 129 134 158 326 137 212 202 198 139 183 230 248 289 261 276 128 217 188 239 201 159 144 154 167 159 160 165 165 161 161
328 326 325 323 321 318 318 316 314 313 312 311 312 309 308 304 302 300 301 300 298 295 294 301 309 286 277 268 255 247 37 294 18 292 247 207 206 215 213 215 218 226 234 252 226 231 250 280 296 276 299 342 282 33 87 100 300 118 122 122 110 129 165 270 257 154 205 267 214 271 261 231 215 245 143 216 184 259 281 155 162 171 162 166 164 165 169 169
325 324 322 320 318 316 315 314 312 311 309 310 310 306 302 301 297 296 297 298 294 294 294 299 301 253 283 272 243 245 257 271 270 213 277 212 223 216 220 213 227 227 245 262 279 277 251 253 272 278 277 287 307 118 225 163 148 110 101 60 170 160 228 190 158 223 193 163 196 216 241 197 204 231 215 254 348 329 287 242 160 174 164 168 168 167 173 173
323 320 319 318 314 315 315 311 310 308 308 306 303 299 297 296 295 293 292 287 292 288 286 281 272 269 260 259 278 286 251 269 258 207 233 245 228 213 214 225 228 236 244 265 276 300 313 269 269 287 297 270 279 329 228 84 32 84 172 6 337 248 119 159 216 190 171 157 187 183 255 205 191 197 204 208 68 24 298 308 214 165 178 166 176 171 178 171
321 319 317 314 312 313 313 310 308 306 306 302 297 297 296 293 293 290 288 286 270 270 273 272 243 262 229 258 252 252 123 245 270 248 223 231 220 219 212 217 225 235 254 247 263 252 267 286 277 264 264 251 241 241 251 95 192 62 7 207 15 309 102 185 213 202 203 179 199 215 247 278 167 201 173 201 114 327 316 275 291 186 183 172 172 179 179 170
318 318 312 310 310 312 310 309 304 302 299 300 297 294 293 290 287 286 284 275 284 297 261 251 216 229 290 282 301 69 192 229 231 234 235 239 217 229 207 218 221 232 236 252 259 289 277 268 256 261 267 278 275 263 41 115 45 186 178 227 211 249 100 251 201 193 203 165 186 220 294 172 202 206 186 180 155 193 231 291 279 262 181 176 178 178 184 174
317 310 311 307 307 308 308 305 303 301 301 296 299 289 282 277 276 279 280 275 259 215 222 253 201 198 263 75 349 224 222 221 237 216 220 219 230 226 215 209 217 226 229 258 251 235 257 251 243 246 239 271 291 273 114 49 213 189 214 241 179 221 202 196 140 213 185 189 186 202 234 243 208 180 189 180 162 169 238 248 260 278 193 187 179 184 185 178
312 311 308 309 304 306 304 301 304 304 302 299 293 290 286 282 290 290 265 233 226 207 229 250 272 278 244 251 266 258 185 220 194 227 204 200 227 223 235 213 213 228 236 228 232 253 233 246 247 267 275 233 225 230 214 221 246 173 192 202 206 228 235 101 186 205 197 195 221 203 229 225 188 174 192 172 162 178 218 223 264 281 264 184 191 191 184 186
315 313 310 308 305 301 305 302 300 307 307 305 289 270 266 267 263 235 253 175 184 183 218 192 193 213 26 181 218 257 233 36 118 225 208 204 197 231 225 243 223 214 226 223 224 221 227 255 246 253 251 247 230 233 208 203 266 257 186 293 166 228 149 180 214 165 192 180 208 206 213 215 194 184 184 188 174 176 182 190 283 276 302 251 195 197 190 186
314 313 308 303 302 300 300 302 297 298 312 311 298 235 222 204 173 185 210 213 226 228 274 147 197 238 292 241 198 110 26 106 245 207 244 197 203 209 228 218 224 221 228 222 232 211 240 236 234 237 244 249 263 257 262 220 188 245 171 209 142 222 263 178 156 184 179 188 219 213 230 182 194 188 178 188 191 192 155 170 208 282 282 294 227 196 193 188
315 310 306 302 294 299 296 297 300 292 293 287 291 278 237 352 313 65 170 216 220 237 250 257 199 236 252 332 35 239 245 217 225 210 226 169 218 200 211 217 221 219 218 235 238 211 207 244 244 246 251 256 254 247 242 258 258 263 274 246 188 307 167 112 188 174 190 222 217 213 214 204 195 188 182 183 192 197 173 159 180 218 277 285 293 218 193 185
314 311 305 301 293 286 293 288 288 292 283 268 270 245 276 333 8 328 297 275 223 223 237 245 253 249 255 267 269 5 327 290 194 229 198 189 196 217 184 211 214 226 210 222 234 252 219 229 245 250 253 266 272 274 285 307 306 266 258 271 149 200 146 200 186 161 186 208 289 177 215 198 197 175 177 184 194 195 198 171 170 178 187 249 273 254 185 189
315 312 306 301 295 279 275 272 276 312 270 220 224 240 261 278 320 315 297 277 282 248 220 232 237 240 256 257 264 219 242 240 264 195 196 184 198 215 208 202 218 226 229 210 229 231 245 226 230 248 258 253 260 272 302 289 253 261 263 248 204 231 208 126 171 178 168 231 297 17 238 317 149 162 181 181 201 193 195 185 161 161 182 202 220 274 208 184
314 312 307 298 292 284 260 268 254 227 232 225 238 245 266 313 335 322 300 269 303 264 198 210 231 231 231 243 233 234 222 246 241 256 170 184 221 194 240 216 218 229 230 226 220 241 244 254 239 234 233 258 277 273 261 241 248 241 250 240 251 249 216 221 182 211 165 204 201 188 268 219 131 175 184 191 193 190 199 180 156 159 167 219 273 230 323 289
315 312 305 297 278 280 260 205 232 220 205 219 246 253 264 277 286 333 308 286 225 245 169 203 204 237 260 28 74 256 216 242 257 268 191 186 207 213 222 236 236 225 234 235 237 231 247 257 256 259 295 273 246 246 242 267 263 250 232 251 274 266 278 254 230 181 175 164 202 249 263 231 160 180 197 168 184 196 178 194 161 176 181 204 175 219 234 274
312 311 304 289 273 138 95 210 215 208 199 217 238 224 227 257 346 327 302 274 239 134 150 201 150 174 342 227 198 240 278 264 239 235 248 178 217 239 197 241 219 236 227 238 241 249 243 227 249 257 233 243 271 284 274 247 267 261 248 259 238 237 246 249 286 283 256 152 186 224 278 281 177 190 190 179 184 182 178 197 193 167 179 184 174 185 218 241
316 310 296 268 197 139 201 41 346 213 223 209 178 73 346 240 47 287 274 215 238 142 196 104 195 125 230 75 202 150 231 346 201 211 238 165 214 192 257 223 223 243 267 246 230 238 246 250 238 231 251 260 259 243 246 268 266 256 270 260 282 238 253 271 262 271 324 122 168 224 240 262 250 164 176 167 179 177 176 188 186 174 177 188 186 191 203 240
315 311 283 232 189 189 340 315 317 275 13 37 28 261 355 36 321 272 260 279 77 209 150 153 4 131 250 146 232 217 278 347 254 177 227 160 200 200 230 247 239 231 216 252 255 228 241 236 230 260 249 247 248 252 260 216 245 280 244 229 252 267 254 268 286 261 258 286 181 213 228 253 265 120 168 164 169 175 189 187 189 198 191 192 180 188 204 217
318 310 276 220 200 220 273 292 306 300 1 353 42 304 313 250 266 285 285 284 122 182 344 102 178 194 214 199 228 233 256 261 294 117 196 144 180 258 210 239 264 262 243 227 250 257 235 263 241 223 262 248 221 244 264 272 244 211 265 288 344 285 270 269 256 273 279 290 281 287 238 214 271 134 220 172 168 182 192 197 196 195 188 194 196 180 191 197
321 302 224 170 169 216 238 225 239 272 309 303 337 311 282 276 259 236 226 286 100 147 219 97 202 156 190 236 225 203 232 255 234 96 191 207 174 218 264 262 237 246 262 251 241 260 278 231 317 295 233 243 265 234 230 247 266 299 280 255 240 226 233 237 248 269 289 249 266 240 259 242 251 192 221 196 195 190 186 184 191 193 190 194 201 186 191 193
315 301 191 181 215 332 246 228 219 231 298 324 289 285 283 259 258 271 310 59 263 68 247 160 158 214 237 241 277 176 224 236 220 163 211 198 227 211 236 235 258 269 252 256 257 229 245 259 219 239 280 309 315 283 240 249 264 258 256 263 286 267 249 238 238 235 255 262 248 255 246 236 251 148 190 254 241 208 171 179 182 188 191 194 197 194 187 189
322 259 191 191 301 326 265 353 351 331 326 314 298 284 263 266 209 259 30 172 243 61 347 15 303 317 332 298 271 180 195 192 250 174 236 196 241 203 203 257 177 239 234 241 244 242 232 229 254 241 202 250 249 262 263 245 220 224 246 246 252 270 265 244 254 250 263 276 298 282 264 219 233 252 212 239 222 197 163 171 180 184 190 194 193 197 176 187
316 239 201 236 283 266 253 292 331 331 292 277 289 273 263 280 299 28 341 13 75 330 7 311 305 317 313 326 266 306 267 258 115 272 201 247 232 225 226 237 247 238 263 212 246 250 234 247 227 242 239 191 234 242 230 240 226 225 220 238 237 239 238 255 256 268 236 218 234 243 205 257 342 274 200 257 205 136 157 159 179 182 186 188 193 194 189 186
288 174 178 210 217 244 283 308 275 310 293 279 273 275 246 263 356 49 338 25 346 355 325 323 337 313 277 261 311 4 297 191 171 255 211 256 207 253 226 212 255 245 240 273 258 229 252 232 229 223 221 194 206 227 245 254 226 222 238 238 240 242 248 258 277 250 268 263 258 251 235 228 252 71 200 229 240 120 164 161 167 176 179 182 187 191 194 195
300 224 246 274 232 248 248 253 268 259 283 281 270 277 289 352 28 7 341 7 331 325 308 332 298 311 291 276 69 297 21 323 292 254 244 219 270 225 259 227 195 270 271 255 224 267 247 250 253 218 240 200 215 203 233 253 266 235 221 230 237 227 224 257 239 283 279 298 315 307 264 78 115 147 239 298 82 203 169 137 174 168 162 166 179 192 196 194
248 225 199 245 233 230 215 225 227 243 266 280 286 276 356 17 347 360 5 340 314 321 325 293 255 245 266 258 171 93 109 298 334 344 281 251 218 249 14 322 281 210 235 245 221 253 268 275 273 278 225 225 206 206 203 232 248 203 235 222 226 226 230 237 249 253 279 271 238 235 216 215 247 210 218 207 217 152 96 124 154 160 160 161 171 184 204 202
256 215 212 232 232 154 201 226 235 247 257 281 292 335 348 29 38 327 16 336 328 303 287 309 12 343 326 305 294 18 353 333 266 225 253 300 275 162 99 324 315 330 310 279 255 265 270 254 302 288 244 192 255 199 217 201 242 264 245 234 225 226 247 251 266 282 260 262 231 242 252 276 193 240 242 172 107 70 65 65 58 132 157 164 177 200 202 198
267 258 271 279 84 175 168 212 225 237 266 267 277 303 332 322 51 358 0 317 329 311 312 296 37 296 345 336 1 28 6 330 319 300 283 189 283 347 266 223 247 337 331 341 299 33 308 279 229 245 274 211 216 232 199 222 207 240 241 162 231 183 229 206 282 270 274 243 296 284 256 246 178 356 95 139 206 137 138 133 153 150 170 166 178 188 190 195
267 280 239 134 138 175 152 172 230 259 266 262 268 198 64 306 57 24 338 341 293 328 299 360 340 2 353 306 348 327 351 299 328 300 298 222 225 158 261 43 285 318 274 327 303 303 308 314 302 274 277 205 226 190 234 191 199 222 247 257 218 170 235 246 199 277 266 287 273 196 208 266 131 349 231 140 101 130 131 176 182 162 158 168 190 185 176 173
269 264 166 141 148 113 166 213 250 251 256 274 1 16 3 346 357 22 351 342 348 314 21 316 11 317 356 338 347 344 326 315 310 326 288 48 77 166 286 110 278 298 294 305 305 299 302 328 295 302 304 296 237 194 221 219 193 190 216 244 241 217 248 252 199 219 237 266 255 282 306 181 303 38 17 92 133 54 299 138 87 229 115 111 205 159 174 182
261 276 95 226 115 249 166 242 255 257 252 218 69 8 41 10 328 339 332 9 317 77 344 334 335 339 8 335 0 317 296 315 318 293 304 341 4 325 191 313 20 290 328 285 286 303 296 266 292 293 276 259 248 177 214 231 218 196 198 218 236 218 208 212 261 240 234 231 246 265 187 306 207 159 53 54 41 42 114 105 164 172 74 75 307 118 155 140
279 267 103 351 88 221 254 275 243 263 313 23 21 7 23 317 296 16 327 21 320 337 27 307 22 329 2 315 342 311 321 324 299 302 256 308 69 313 74 289 232 314 291 274 270 72 66 313 298 278 269 302 295 268 191 240 246 230 189 208 213 237 248 232 232 220 246 246 307 312 332 70 17 48 71 61 62 48 40 98 80 54 71 106 183 115 64 59
244 17 68 204 44 264 270 267 264 267 57 30 315 167 11 181 343 15 325 20 334 18 314 325 18 319 297 329 333 329 345 299 304 294 338 352 14 8 23 343 359 261 277 260 242 58 31 295 282 274 308 313 304 282 221 198 238 241 210 213 197 219 226 237 211 232 254 206 228 283 234 101 93 67 67 84 83 77 52 45 82 44 12 74 36 46 66 15
286 34 130 72 191 241 263 310 359 57 42 63 357 357 113 356 346 351 332 351 9 332 347 319 329 22 326 307 311 309 335 292 331 291 320 66 358 334 326 306 336 292 247 27 260 44 272 179 259 271 284 281 279 262 267 197 216 238 233 203 230 214 212 221 242 217 246 265 298 215 256 245 108 157 105 103 102 99 87 62 95 118 54 56 45 53 63 329
294 105 329 127 197 234 313 2 344 351 52 358 352 358 348 173 52 357 348 332 19 338 309 340 344 341 307 354 327 303 301 321 303 308 340 176 121 277 318 313 302 314 349 61 300 20 269 271 344 244 244 249 251 304 354 335 316 286 256 247 214 248 231 228 220 223 247 184 266 259 137 47 21 58 125 115 112 98 92 109 109 90 74 88 77 63 65 311
297 269 140 162 219 206 88 327 344 333 352 245 234 92 315 4 120 80 343 358 35 337 319 312 317 339 325 359 325 343 320 296 291 329 334 284 93 62 4 308 292 111 55 355 304 250 265 291 263 285 282 274 276 298 286 309 314 305 269 253 261 202 238 246 255 246 230 178 220 229 138 149 157 218 132 119 144 129 132 147 120 101 94 97 87 75 76 283
288 358 355 18 289 91 94 27 10 19 13 349 345 4 336 354 11 103 67 318 4 339 321 303 353 330 358 334 354 320 316 323 342 319 305 325 119 187 157 240 257 117 125 266 256 282 279 274 229 237 262 265 281 287 286 283 293 297 312 287 251 255 214 230 236 237 157 258 240 125 131 166 140 242 149 130 171 155 142 154 94 90 114 106 88 78 60 287
315 47 4 44 321 4 343 44 349 40 26 344 46 322 16 333 17 349 347 7 322 31 333 353 329 19 348 342 336 317 331 330 301 360 353 337 331 304 261 228 286 105 265 257 264 275 273 255 252 241 244 259 268 288 297 304 294 296 293 291 261 233 250 241 232 246 232 216 252 124 137 157 171 226 223 148 161 167 157 137 117 126 121 95 100 109 116 248
6 24 73 327 324 42 6 12 333 356 57 8 360 5 3 357 350 12 331 345 330 16 25 324 336 348 342 333 323 316 314 315 329 2 304 338 317 330 288 275 285 253 241 266 245 4 322 256 288 272 280 285 304 289 279 292 300 295 287 287 284 242 223 242 247 241 233 237 239 188 177 232 212 177 199 146 172 159 136 115 106 103 116 136 154 154 182 214
30 352 8 339 26 13 350 295 303 282 80 8 327 42 323 14 345 360 335 11 345 340 13 328 344 338 328 317 317 307 330 344 349 321 330 322 310 286 306 304 313 82 343 353 31 5 287 301 256 264 266 267 265 284 298 283 281 281 284 282 305 327 279 223 228 231 238 247 243 226 198 210 98 110 124 110 81 90 111 124 143 152 163 145 156 180 155 132
338 11 346 326 328 42 303 355 356 354 49 30 359 28 336 13 353 354 328 60 339 354 357 347 336 330 317 315 310 319 356 340 324 310 310 305 291 307 315 311 333 1 25 260 230 182 225 244 291 332 317 284 274 288 287 267 260 269 272 335 4 344 339 301 238 242 247 241 240 239 226 224 143 139 114 120 118 119 134 141 146 157 163 144 145 184 142 113
352 1 349 344 316 133 258 103 31 289 68 52 14 358 356 354 354 353 325 89 350 16 4 343 335 323 325 317 346 352 332 321 311 303 299 292 287 278 270 269 267 278 285 282 307 290 262 273 276 277 288 273 290 288 281 274 259 262 278 3 350 333 335 338 325 31 26 7 308 234 37 71 65 90 125 111 112 133 141 153 156 154 119 127 142 173 131 107